Location: Fundy National Park
(45.6138°N, 65.0316°W)
Time: 00:26:37
(UTC-03:00)

Envisat - Visible Passes

Search period start: 21 October 2021 00:00
Search period end: 31 October 2021 00:00
Orbit: 764 x 766 km, 98.2° (Epoch: 20 October)

Date Brightness Start Highest point End Pass type
(mag) Time Alt. Az. Time Alt. Az. Time Alt. Az.
21 Oct 6.3 04:56:10 10° ENE 04:57:02 10° E 04:57:55 10° E visible
21 Oct 3.1 06:31:44 10° NNE 06:36:51 82° ESE 06:41:56 10° SSW visible
22 Oct 4.5 05:55:08 10° NNE 05:59:53 38° E 06:04:36 10° SSE visible
22 Oct 6.1 18:52:49 10° SW 18:56:09 17° W 18:59:30 10° NW visible
23 Oct 5.7 05:19:12 10° NE 05:22:43 18° E 05:26:12 10° SE visible
23 Oct 3.0 06:57:07 10° N 07:02:08 60° WNW 07:07:07 10° SSW visible
24 Oct 3.4 06:20:14 10° NNE 06:25:19 66° ESE 06:30:21 10° S visible
25 Oct 4.9 05:43:47 10° NNE 05:48:17 31° E 05:52:45 10° SSE visible
25 Oct 5.9 18:40:37 10° SW 18:44:29 22° W 18:48:24 10° NW visible
26 Oct 6.0 05:08:15 10° NE 05:11:03 15° E 05:13:49 10° ESE visible
26 Oct 2.9 06:45:33 10° N 06:50:38 75° WNW 06:55:42 10° SSW visible
27 Oct 3.9 06:08:46 10° NNE 06:13:45 52° E 06:18:41 10° S visible
27 Oct 6.3 19:07:56 10° WSW 19:10:08 13° W 19:12:21 10° WNW visible
28 Oct 5.2 05:32:30 10° NE 05:36:40 25° E 05:40:47 10° SSE visible
28 Oct 3.3 07:11:02 10° N 07:15:52 45° WNW 07:20:40 10° SW visible
29 Oct 6.2 04:57:46 10° ENE 04:59:22 11° E 05:00:57 10° ESE visible
29 Oct 3.0 06:34:00 10° NNE 06:39:07 88° ESE 06:44:12 10° SSW visible
30 Oct 4.3 05:57:21 10° NNE 06:02:10 41° E 06:06:56 10° SSE visible
30 Oct 6.1 18:55:20 10° SW 18:58:27 16° W 19:01:35 10° NW visible
